DW6386 Weather Reports


time (UTC)temp
C
wind
direction
speed
KPH
gust
KPH
rain 1hr
cm
rain 24hr
cm
rain mn
cm
humidity
%
barometer
mb
20260903200029 35 139 0.0 6.4 0.00 0.00 0.00 47 1013.7
20260903194534 35 255 1.6 11.3 0.00 0.00 0.00 50 1013.8
20260903193028 35 290 0.0 8.0 0.00 0.00 0.00 53 1014.0
20260903191530 35 212 0.0 9.7 0.00 0.00 0.00 51 1014.1
20260903190020 35 328 1.6 9.7 0.00 0.00 0.00 53 1014.3
20260903184519 35 160 0.0 9.7 0.00 0.00 0.00 54 1014.4
20260903183014 35 278 0.0 6.4 0.00 0.00 0.00 57 1014.6
20260903181512 35 253 0.0 8.0 0.00 0.00 0.00 59 1014.9
20260903180019 35 244 0.0 3.2 0.00 0.00 0.00 57 1015.0
20260903174514 34 229 0.0 9.7 0.00 0.00 0.00 59 1015.2
20260903173006 34 349 1.6 8.0 0.00 0.00 0.00 60 1015.4
20260903171505 34 228 3.2 6.4 0.00 0.00 0.00 58 1015.6
20260903170002 33 227 3.2 6.4 0.00 0.00 0.00 62 1015.8
20260903164559 33 297 1.6 6.4 0.00 0.00 0.00 62 1016.0
20260903163057 32 269 0.0 6.4 0.00 0.00 0.00 62 1016.1
20260903161556 32 259 0.0 3.2 0.00 0.00 0.00 67 1016.2
20260903160052 32 186 0.0 3.2 0.00 0.00 0.00 68 1016.4
20260903154553 31 280 3.2 9.7 0.00 0.00 0.00 68 1016.5
20260903153049 31 269 1.6 6.4 0.00 0.00 0.00 70 1016.5
20260903151558 30 287 0.0 6.4 0.00 0.00 0.00 74 1016.4
20260903150048 30 201 0.0 3.2 0.00 0.00 0.00 72 1016.5
20260903144539 29 269 1.6 6.4 0.00 0.00 0.00 75 1016.5
20260903143039 29 302 0.0 4.8 0.00 0.00 0.00 74 1016.5
20260903141540 29 254 0.0 3.2 0.00 0.00 0.00 76 1016.5
20260903140027 28 153 0.0 1.6 0.00 0.00 0.00 78 1016.5
20260903134526 28 274 0.0 4.8 0.00 0.00 0.00 80 1016.6
20260903133022 28 224 0.0 3.2 0.00 0.00 0.00 81 1016.6
20260903131517 27 177 0.0 0.0 0.00 0.00 0.00 87 1016.7
20260903130017 26 186 0.0 0.0 0.00 0.00 0.00 94 1016.7
20260903124512 25 186 0.0 0.0 0.00 0.00 0.00 97 1016.7
20260903123007 23 186 0.0 0.0 0.00 0.00 0.00 98 1016.7
20260903121507 23 186 0.0 0.0 0.00 0.00 0.00 99 1016.6
20260903120004 21 186 0.0 0.0 0.00 0.00 0.00 98 1016.4
20260903114502 21 186 0.0 0.0 0.00 0.00 0.00 98 1016.3
20260903113002 21 186 0.0 0.0 0.00 0.00 0.00 98 1016.2
20260903111558 21 186 0.0 0.0 0.00 0.00 0.00 98 1016.0
20260903110059 21 186 0.0 0.0 0.00 0.00 0.00 98 1015.8
20260903104554 21 186 0.0 0.0 0.00 0.00 0.00 98 1015.6
20260903103054 21 186 0.0 0.0 0.00 0.00 0.00 98 1015.5
20260903101559 21 186 0.0 0.0 0.00 0.00 0.00 98 1015.4
20260903100053 21 186 0.0 0.0 0.00 0.00 0.00 98 1015.4
20260903094631 21 186 0.0 0.0 0.00 0.00 0.00 98 1015.4
20260903093051 21 186 0.0 0.0 0.00 0.00 0.00 98 1015.3
20260903091548 22 186 0.0 0.0 0.00 0.00 0.00 98 1015.5
20260903090049 22 186 0.0 0.0 0.00 0.00 0.00 97 1015.5
20260903084546 22 186 0.0 0.0 0.00 0.00 0.00 98 1015.5
20260903083045 22 186 0.0 0.0 0.00 0.00 0.00 97 1015.4
20260903081544 22 186 0.0 0.0 0.00 0.00 0.00 97 1015.4
20260903080056 22 186 0.0 0.0 0.00 0.00 0.00 97 1015.3
20260903074544 22 190 0.0 0.0 0.00 0.00 0.00 97 1015.2
20260903073048 22 190 0.0 0.0 0.00 0.00 0.00 97 1015.2
20260903071640 22 190 0.0 0.0 0.00 0.00 0.00 97 1015.1
20260903070039 22 190 0.0 0.0 0.00 0.00 0.00 96 1014.9
20260903064537 22 190 0.0 0.0 0.00 0.00 0.00 96 1015.1
20260903063035 22 190 0.0 0.0 0.00 0.00 0.00 96 1015.2
20260903061533 22 190 0.0 0.0 0.00 0.00 0.00 96 1015.2
20260903060034 22 190 0.0 0.0 0.00 0.00 0.00 95 1015.3
20260903054530 23 190 0.0 0.0 0.00 0.00 0.00 95 1015.4
20260903053029 23 190 0.0 0.0 0.00 0.00 0.00 95 1015.4
20260903051527 23 190 0.0 0.0 0.00 0.00 0.00 94 1015.4
20260903050027 23 190 0.0 0.0 0.00 0.00 0.00 94 1015.4
20260903044533 23 190 0.0 0.0 0.00 0.00 0.00 94 1015.3
20260903043026 23 190 0.0 0.0 0.00 0.00 0.00 93 1015.3
20260903041522 23 190 0.0 0.0 0.00 0.00 0.00 93 1015.4
20260903040020 23 190 0.0 0.0 0.00 0.00 0.00 92 1015.4
20260903034520 23 190 0.0 0.0 0.00 0.00 0.00 92 1015.3
20260903033019 24 190 0.0 0.0 0.00 0.00 0.00 91 1015.4
20260903031518 24 190 0.0 0.0 0.00 0.00 0.00 91 1015.3
20260903030018 24 190 0.0 0.0 0.00 0.00 0.00 90 1015.3
20260903024518 25 190 0.0 0.0 0.00 0.00 0.00 89 1015.4
20260903023017 25 190 0.0 0.0 0.00 0.00 0.00 88 1015.3
20260903021518 25 211 0.0 0.0 0.00 0.00 0.00 87 1015.3
20260903020016 25 211 0.0 0.0 0.00 0.00 0.00 87 1015.2
20260903014515 25 211 0.0 0.0 0.00 0.00 0.00 86 1015.2
20260903013015 26 211 0.0 0.0 0.00 0.00 0.00 84 1015.2
20260903011515 26 211 0.0 0.0 0.00 0.00 0.00 83 1014.9
20260903010015 26 211 0.0 0.0 0.00 0.00 0.00 83 1014.8
20260903004514 27 211 0.0 0.0 0.00 0.00 0.00 82 1014.7
20260903003013 27 211 0.0 0.0 0.00 0.00 0.00 79 1014.6
20260903001515 28 211 0.0 0.0 0.00 0.00 0.00 76 1014.6
20260903000021 29 211 0.0 0.0 0.00 0.00 0.00 73 1014.5
20260902234515 30 212 0.0 0.0 0.00 0.00 0.00 70 1014.6
20260902233012 31 212 0.0 0.0 0.00 0.00 0.00 67 1014.5
20260902231521 31 212 0.0 0.0 0.00 0.00 0.00 65 1014.6
20260902230010 32 212 0.0 0.0 0.00 0.00 0.00 60 1014.6
20260902224510 32 212 0.0 3.2 0.00 0.00 0.00 57 1014.6
20260902223009 33 227 0.0 3.2 0.00 0.00 0.00 56 1014.7
20260902221508 33 285 0.0 3.2 0.00 0.00 0.00 55 1014.7
20260902220008 33 275 0.0 1.6 0.00 0.00 0.00 55 1014.8
20260902214506 33 273 1.6 6.4 0.00 0.00 0.00 52 1014.8
20260902213005 33 77 0.0 0.0 0.00 0.00 0.00 52 1014.8
20260902211507 34 190 0.0 4.8 0.00 0.00 0.00 51 1014.9
20260902210004 35 216 0.0 1.6 0.00 0.00 0.00 52 1015.0
20260902204503 35 286 0.0 9.7 0.00 0.00 0.00 50 1015.0
20260902203002 35 330 0.0 3.2 0.00 0.00 0.00 49 1015.1
20260902201616 35 271 0.0 9.7 0.00 0.00 0.00 50 1015.2